Location: Aufkirchen
(47.9603°N, 11.3653°E)
Time: 06:13:56
(UTC+01:00)

Transit 2A - Pass Details

Date: 02 December 2020
Orbit: 599 x 960 km, 66.7° (Epoch: 25 January)

Event Time Altitude Azimuth Distance (km) Brightness Sun altitude
Rises 18:07:32 0° 240° (WSW) 3,617 11.0 -16.8°
Reaches altitude 10° 18:10:20 10° 248° (WSW) 2,652 10.1 -17.2°
Maximum altitude 18:16:06 39° 316° (NW) 1,335 7.5 -18.1°
Enters shadow 18:20:54 13° 22° (NNE) 2,285 8.1 -18.9°
Drops below altitude 10° 18:21:31 10° 25° (NNE) 2,488 - -19.0°
Sets 18:24:04 0° 33° (NNE) 3,370 - -19.4°
